This demonstration page uses our WeatherBlox Daily Observations layout. Learn more.

Left ArrowRight Arrow

39.01783, -85.05884

Hourly Observations for September 30, 2021

Temp ( °F °C ) Dew Point ( °F °C ) Humidity (%) Winds ( mph kmh ) Pressure ( in mb ) Visibility ( mi km ) Precip ( " mm )
12:52 am 00:52 Mostly Cloudy 64 17.8 50 10 60 60 E 5 7 30.09 1019 10 16 0.00 0.00
1:52 am 01:52 Mostly Cloudy 64 17.8 51 10.6 63 63 E 5 7 30.09 1019 10 16 0.00 0.00
2:52 am 02:52 Mostly Cloudy 63 17.2 51 10.6 65 65 E 6 9 30.10 1019 10 16 0.00 0.00
3:52 am 03:52 Mostly Cloudy 63 17.2 51 10.6 65 65 E 3 6 30.10 1019 10 16 0.00 0.00
4:52 am 04:52 Partly Cloudy 63 17.2 51 10.6 65 65 ENE 5 7 30.10 1019 10 16 0.00 0.00
5:52 am 05:52 Partly Cloudy 60 15.6 53 11.7 78 78 ENE 5 7 30.10 1019 10 16 0.00 0.00
6:52 am 06:52 Clear 60 15.6 51 10.6 72 72 ENE 3 6 30.12 1020 10 16 0.00 0.00
7:52 am 07:52 Mostly Cloudy 57 13.9 50 10 78 78 Calm 30.14 1021 10 16 0.00 0.00
8:52 am 08:52 Mostly Cloudy 62 16.7 52 11.1 70 70 ENE 6 9 30.15 1021 9 14 0.00 0.00
9:52 am 09:52 Mostly Cloudy 64 17.8 52 11.1 65 65 E 5 7 30.16 1021 10 16 0.00 0.00
10:52 am 10:52 Mostly Cloudy 70 21.1 53 11.7 55 55 undefined N/A 30.17 1022 10 16 0.00 0.00
11:52 am 11:52 Mostly Cloudy 73 22.8 51 10.6 46 46 SE 7 11 30.17 1022 10 16 0.00 0.00
12:52 pm 12:52 Mostly Cloudy 74 23.3 51 10.6 45 45 ESE 7 11 30.17 1022 10 16 0.00 0.00
1:52 pm 13:52 Mostly Cloudy 76 24.4 48 8.9 37 37 SE 5 7 30.15 1021 10 16 0.00 0.00
2:52 pm 14:52 Cloudy 77 25 48 8.9 36 36 Calm 30.14 1021 10 16 0.00 0.00
3:52 pm 15:52 Mostly Cloudy 78 25.6 52 11.1 40 40 ENE 7 11 30.14 1021 10 16 0.00 0.00
4:52 pm 16:52 Mostly Cloudy 78 25.6 49 9.4 36 36 E 5 7 30.14 1021 10 16 0.00 0.00
5:52 pm 17:52 Mostly Cloudy 76 24.4 48 8.9 37 37 NE 3 6 30.14 1021 10 16 0.00 0.00
6:52 pm 18:52 Mostly Cloudy 75 23.9 50 10 41 41 E 7 11 30.15 1021 10 16 0.00 0.00
7:52 pm 19:52 Mostly Cloudy 73 22.8 51 10.6 46 46 E 5 7 30.16 1021 10 16 0.00 0.00
8:52 pm 20:52 Mostly Cloudy 70 21.1 52 11.1 53 53 E 5 7 30.17 1022 10 16 0.00 0.00
9:52 pm 21:52 Mostly Cloudy 66 18.9 53 11.7 63 63 Calm 30.18 1022 10 16 0.00 0.00
10:52 pm 22:52 Mostly Cloudy 67 19.4 53 11.7 61 61 E 3 6 30.19 1022 10 16 0.00 0.00
11:52 pm 23:52 Partly Cloudy 64 17.8 53 11.7 68 68 E 6 9 30.19 1022 10 16 0.00 0.00

Powered by AerisWeather